C/2015 B2 ( PanSTARRS )

Japanese version
Home page
Updated on October 8, 2017

---------------------------------------------------------------------

* Profile

Discovery Date January 29, 2015
Magnitude 19.8 mag
Discoverer Pan-STARRS 1 telescope (Haleakala)

* Pictures

* Orbital Elements

Epoch 2016 May 12.0 TT = JDT 2457520.5
T 2016 May 6.57730 TT                                   MPCW
q   3.3695967            (2000.0)            P               Q
z  -0.0001211      Peri.  284.76954     +0.32050914     +0.89850649
 +/-0.0000006      Node   341.90206     +0.51822536     -0.43137367
e   1.0004080      Incl.  105.08811     -0.79291637     +0.08125796
From 212 observations 2015 Jan. 6-2017 June 22, mean residual 0".4.

* Finding Charts

* Magnitudes Graph

        m1 = 9.2 + 5 log d + 10.0 log r(t + 150)

---------------------------------------------------------------------

The orbital elements are published on M.P.E.C. 2017-N58.
The charts are made with StellaNavigator Ver.8 (AstroArts).
The magnitudes graphs are made with Comet for Windows.

---------------------------------------------------------------------

Copyright(C) Seiichi Yoshida (comet@aerith.net). All rights reserved.